Regional Weather Roundup
Issued by NWS

Home | Current Version | Previous Version | Graphics & Text | Print | Product List | Glossary On
Versions: 1 2 3 4 5 6 7 8 9 10 11 12 13 14 15 16 17 18 19 20 21 22 23 24 25 26 27 28 29 30 31 32 33 34 35 36 37 38 39 40 41 42 43 44 45 46 47 48 49 50
389
ASUS43 KLOT 221009
RWRIL

ILLINOIS REGIONAL WEATHER ROUNDUP
NATIONAL WEATHER SERVICE CHICAGO/ROMEOVILLE IL
500 AM CDT SUN OCT 22 2017

NOTE: "FAIR" INDICATES FEW OR NO CLOUDS BELOW 12,000 FEET WITH NO
SIGNIFICANT WEATHER AND/OR OBSTRUCTIONS TO VISIBILITY.

* THESE STATIONS ARE NOT UNDER NWS QUALITY CONTROL. THEY ALSO MAY NOT
  REPORT WEATHER SUCH AS PRECIPITATION OR FOG.

ILZ001-002-007-009-015-016-024-221100-
NORTHWEST ILLINOIS

CITY           SKY/WX    TMP DP  RH WIND       PRES   REMARKS
MOLINE         HVY RAIN  62  59  90 W7        29.87R FOG
STERLING*      LGT RAIN  64  62  93 CALM        N/A
SAVANNA*       RAIN      62  61  96 CALM      29.86F
$$

ILZ003-004-008-010-011-017-018-221100-
NORTH CENTRAL ILLINOIS

CITY           SKY/WX    TMP DP  RH WIND       PRES   REMARKS
ROCKFORD       TSTM      63  60  90 S15       29.90R
FREEPORT*      CLOUDY    64  58  82 S10       29.89F
ROCHELLE*      CLOUDY    64  57  78 S9G17     29.90F
DE KALB*       CLOUDY    64  58  80 S15G21    29.92S
PERU*          PTCLDY    64  57  79 S13       29.89S
$$

ILZ005-006-012>014-019>023-221100-
NORTHEAST ILLINOIS

CITY           SKY/WX    TMP DP  RH WIND       PRES   REMARKS
CHICAGO-OHARE  CLOUDY    68  57  68 S18       29.93F
CHICAGO-MIDWAY MOCLDY    67  57  70 S9        29.95S
AURORA         CLOUDY    66  58  75 SE13      29.93S
LANSING*       CLOUDY    64  56  75 S13       29.98S
JOLIET*        CLOUDY    68  60  74 S12G18    29.94F
WAUKEGAN       PTCLDY    67  57  70 S14       29.91F
DUPAGE AIRPORT CLOUDY    67  59  75 S15       29.93F
KANKAKEE*      MOCLDY    63  55  76 SE8       29.97S
WHEELING       CLOUDY    68  59  73 S13       29.95S
MORRIS*        CLOUDY    65  57  75 S13G20    29.92S
ROMEOVILLE*    CLOUDY    65  58  76 S13       29.95S
NORTHERLY ISL    N/A     65  53  65 S7          N/A
$$

LMZ740>746-221100-
SOUTHERN LAKE MICHIGAN

STATION/POSITION SKY/WX   TEMP    WIND        PRES    VSBY  WAVE
                          AIR SEA DIR/SP/G                  HT/PER
                          (F)     (DEG/KT/KT) (MB)    (MI)  (FT/S)
SOUTHERN BUOY              63 60  150/ 17/ 21 1014.9          4/ 5
WILMETTE HARBOR            61 58  150/ 14/ 17   N/A           3/ 4
HARRISON CRIB              65     170/ 15/ 16   N/A
BURNHAM HARBOR             65     160/ 11/ 15   N/A
CALUMET HARBOR             65     170/  9/ 13 1014.0F
BURNS HARBOR               67     180/ 14/ 24 1015.2F
MICHIGAN CITY              65     160/ 12/ 15   N/A
MICHIGAN CITY 6N           63 58  180/ 16/ 19   N/A           2/ 3
ST. JOSEPH                 65 59  180/ 16/ 23 1015.9          3/ 4
$$

ILZ025>027-034>036-040-047-049-050-058-095>099-221100-
WEST-CENTRAL ILLINOIS

CITY           SKY/WX    TMP DP  RH WIND       PRES   REMARKS
QUINCY         HVY RAIN  60  59  96 NW18G28   29.89R FOG
MACOMB*        LGT RAIN  61  60  97 NW8       29.90R
JACKSONVILLE*  CLOUDY    67  62  84 SE15G24   29.85F
PITTSFIELD*    CLOUDY    68  64  85 SE12G18   29.85R
$$

ILZ028>032-037-038-041>044-048-051>054-059>061-221100-
CENTRAL ILLINOIS

CITY           SKY/WX    TMP DP  RH WIND       PRES   REMARKS
PONTIAC        MOCLDY    65  61  86 S16       29.93S
BLOOMINGTON    CLOUDY    65  59  81 S17       29.93S
DECATUR        CLOUDY    66  59  78 S16       29.94S
PEORIA         CLOUDY    67  61  81 S13G26    29.86F
LACON*         MOCLDY    67  60  78 S16       29.87S
LINCOLN*       PTCLDY    68  61  79 S16G23    29.89F
SPRINGFIELD    CLOUDY    69  61  75 S16G23    29.89F
TAYLORVILLE    CLOUDY    67  59  77 S17G26    29.92F
$$

ILZ033-039-045-046-055>057-062-063-221100-
EAST-CENTRAL ILLINOIS

CITY           SKY/WX    TMP DP  RH WIND       PRES   REMARKS
CHAMPAIGN      CLOUDY    66  57  72 SE17      29.98R
DANVILLE*      PTCLDY    63  54  73 S13       29.98S
RANTOUL*       CLOUDY    64  58  80 SE12      29.98R
MATTOON        PTCLDY    64  59  83 S15       29.98R
PARIS*         CLEAR     61  55  82 SE10      30.02S
$$

ILZ079-100>102-221100-
SOUTHWEST ILLINOIS

CITY           SKY/WX    TMP DP  RH WIND       PRES   REMARKS
ALTON          CLOUDY    69  63  81 SE10G17   29.90F
BELLEVILLE     CLOUDY    70  60  69 SE14G21   29.93S
CAHOKIA*       CLOUDY    71  61  70 SE12G22   29.88S
SPARTA*        CLOUDY    68  61  78 SE12G18   29.94S
$$

ILZ064>066-069>071-074>076-080>082-084>086-088>090-092>094-221100-
SOUTH-CENTRAL ILLINOIS

CITY           SKY/WX    TMP DP  RH WIND       PRES   REMARKS
CARBONDALE     CLOUDY    70  62  76 S15G25    29.96S
CAIRO*         CLOUDY    68  62  80 SE13      29.99S
EFFINGHAM*     CLOUDY    66  59  79 SE14      30.00S
MARION         CLOUDY    71  62  72 S14       29.99S
MT. VERNON     CLOUDY    68  61  78 S10       29.98F
CENTRALIA*     CLOUDY    69  62  77 SE16G24   29.95S
SALEM*         CLOUDY    68  60  75 SE7       29.97S
METROPOLIS*    CLOUDY    69  61  76 SE9G16    30.02F
$$

ILZ067-068-072-073-078-083-087-091-221100-
SOUTHEAST ILLINOIS

CITY           SKY/WX    TMP DP  RH WIND       PRES   REMARKS
LAWRENCEVILLE  MOCLDY    64  55  72 S14       30.04F
FLORA*         MOCLDY    66  60  79 SE13      30.00S
FAIRFIELD*     CLOUDY    65  59  80 SE6       30.00S
HARRISBURG*    CLOUDY    68  61  78 S15       30.01F
ROBINSON*      MOCLDY    64  55  75 S14       30.03F
CARMI*         MOCLDY    64  59  84 SE12      30.02S
$$

ABBREVIATIONS USED IN REMARKS
   TC - TEMPERATURE IN CELSIUS
  WCI - WIND CHILL INDEX
   HX - HEAT INDEX
  VSB - VISIBILITY
$$





USA.gov is the U.S. government's official web portal to all federal, state and local government web resources and services.